Weather History for K2D5 - September, 2013

Change the Weather History Date:

Wednesday, September 4, 2013

  Actual Average (KABR) Record (KABR)
Temperature  
Mean Temperature 66 °F 64 °F  
Max Temperature 80 °F 77 °F 100 °F (1931)
Min Temperature 53 °F 51 °F 30 °F (1961)
Degree Days  
Heating Degree Days 0 4  
Month to date heating degree days 14  
Since 1 July heating degree days 65  
Cooling Degree Days 2 3  
Month to date cooling degree days 12  
Year to date cooling degree days 495  
Growing Degree Days 16 (Base 50)    
Moisture  
Dew Point 56 °F    
Average Humidity 72    
Maximum Humidity 100    
Minimum Humidity 42    
Precipitation  
Precipitation 0.00 in 0.08 in 1.75 in (1971)
Month to date precipitation 0.30  
Year to date precipitation 16.59  
Sea Level Pressure  
Sea Level Pressure 30.12 in    
Wind  
Wind Speed - (North)    
Max Wind Speed -    
Max Gust Speed -    
Visibility 10 miles    
Events Rain    
T = Trace of Precipitation, MM = Missing Value Source: NWS Daily Summary

Daily Weather History Graph

Daily Weather History Graph

Search for Another Location

Airport or City:

Trip Planner

Search our weather history database for the weather conditions in past years. The results will help you decide how hot, cold, wet, or windy it might be!

Date:

Astronomy

Sep. 04, 2013 Rise Set
Actual Time 6:56 AM CDT 8:04 PM CDT
Civil Twilight 6:26 AM CDT 8:35 PM CDT
Nautical Twilight 5:49 AM CDT 9:12 PM CDT
Astronomical Twilight 5:09 AM CDT 9:51 PM CDT
Moon 6:10 AM CDT (9/4) 7:22 PM CDT (9/4)
Length of Visible Light 14h 09m
Length of Day
13h 07m
Waning Crescent, 1% of the Moon is Illuminated
Sep 4
Waning Crescent
Sep 5
New
Sep 12
First Quarter
Sep 19
Full
Sep 26
Last Quarter

Hourly Weather History & Observations

Time (CDT) Temp. Heat Index Dew Point Humidity Pressure Visibility Wind Dir Wind Speed Gust Speed Precip Events Conditions
12:15 AM 62.6 °F - 62.6 °F 100% 30.02 in 10.0 mi North - - N/A   Unknown
12:35 AM 62.6 °F - 62.6 °F 100% 30.02 in 10.0 mi North - - N/A   Unknown
12:55 AM 62.6 °F - 62.6 °F 100% 30.02 in 10.0 mi North - - N/A   Unknown
1:15 AM 60.8 °F - 60.8 °F 100% 30.03 in 10.0 mi North - - N/A   Unknown
1:35 AM 60.8 °F - 60.8 °F 100% 30.04 in 10.0 mi North - - N/A   Unknown
1:55 AM 59.0 °F - 59.0 °F 100% 30.05 in 10.0 mi North - - N/A   Unknown
2:15 AM 62.6 °F - 62.6 °F 100% 30.05 in 10.0 mi North - - N/A   Unknown
2:35 AM 62.6 °F - 62.6 °F 100% 30.06 in 10.0 mi North - - N/A   Unknown
2:55 AM 64.4 °F - 64.4 °F 100% 30.06 in 10.0 mi North - - N/A   Unknown
3:15 AM 64.4 °F - 64.4 °F 100% 30.06 in 10.0 mi North - - N/A   Unknown
3:35 AM 62.6 °F - 62.6 °F 100% 30.06 in 10.0 mi North - - N/A   Unknown
3:55 AM 62.6 °F - 62.6 °F 100% 30.07 in 10.0 mi North - - N/A   Unknown
4:15 AM 62.6 °F - 60.8 °F 94% 30.07 in 10.0 mi North - - N/A   Unknown
4:35 AM 59.0 °F - 59.0 °F 100% 30.07 in 10.0 mi North - - N/A   Unknown
4:55 AM 59.0 °F - 57.2 °F 94% 30.08 in 10.0 mi North - - N/A   Unknown
5:15 AM 59.0 °F - 55.4 °F 88% 30.08 in 10.0 mi North - - N/A   Unknown
5:35 AM 57.2 °F - 55.4 °F 94% 30.09 in 10.0 mi North - - N/A   Unknown
5:55 AM 57.2 °F - 55.4 °F 94% 30.09 in 10.0 mi North - - N/A   Unknown
6:15 AM 55.4 °F - 55.4 °F 100% 30.10 in 10.0 mi North - - N/A   Unknown
6:35 AM 55.4 °F - 55.4 °F 100% 30.11 in 10.0 mi North - - N/A   Unknown
6:55 AM 53.6 °F - 53.6 °F 100% 30.12 in 10.0 mi North - - N/A   Unknown
7:15 AM 53.6 °F - 53.6 °F 100% 30.13 in 10.0 mi North - - N/A   Unknown
7:35 AM 53.6 °F - 53.6 °F 100% 30.13 in 10.0 mi North - - N/A   Unknown
7:55 AM 53.6 °F - 53.6 °F 100% 30.13 in 10.0 mi North - - N/A   Unknown
8:15 AM 53.6 °F - 51.8 °F 94% 30.14 in 10.0 mi North - - N/A   Unknown
8:35 AM 55.4 °F - 51.8 °F 88% 30.14 in 10.0 mi North - - N/A   Unknown
8:55 AM 57.2 °F - 51.8 °F 82% 30.14 in 10.0 mi North - - N/A   Unknown
9:15 AM 57.2 °F - 51.8 °F 82% 30.14 in 10.0 mi North - - N/A   Unknown
9:35 AM 59.0 °F - 53.6 °F 82% 30.14 in 10.0 mi North - - N/A   Unknown
9:55 AM 62.6 °F - 53.6 °F 72% 30.14 in 10.0 mi North - - N/A   Unknown
10:15 AM 62.6 °F - 55.4 °F 77% 30.15 in 10.0 mi North - - N/A   Unknown
10:35 AM 66.2 °F - 55.4 °F 68% 30.15 in 10.0 mi North - - N/A   Unknown
10:55 AM 66.2 °F - 57.2 °F 73% 30.15 in 10.0 mi North - - N/A   Unknown
11:15 AM 68.0 °F - 59.0 °F 73% 30.14 in 10.0 mi North - - N/A   Unknown
11:35 AM 71.6 °F - 59.0 °F 64% 30.15 in 10.0 mi North - - N/A   Unknown
11:55 AM 73.4 °F - 59.0 °F 61% 30.15 in 10.0 mi North - - N/A   Unknown
12:15 PM 73.4 °F - 59.0 °F 61% 30.16 in 10.0 mi North - - N/A   Unknown
12:35 PM 75.2 °F - 59.0 °F 57% 30.15 in 10.0 mi North - - N/A   Unknown
12:55 PM 75.2 °F - 57.2 °F 53% 30.15 in 10.0 mi North - - N/A   Unknown
1:15 PM 75.2 °F - 57.2 °F 53% 30.15 in 10.0 mi North - - N/A Rain Light Rain
1:35 PM 77.0 °F - 57.2 °F 50% 30.15 in 10.0 mi North - - N/A   Unknown
1:55 PM 77.0 °F - 57.2 °F 50% 30.15 in 10.0 mi North - - N/A   Unknown
2:15 PM 77.0 °F - 57.2 °F 50% 30.15 in 10.0 mi North - - N/A   Unknown
2:35 PM 77.0 °F - 55.4 °F 47% 30.15 in 10.0 mi North - - N/A   Unknown
2:55 PM 78.8 °F - 55.4 °F 44% 30.14 in 10.0 mi North - - N/A   Unknown
3:15 PM 77.0 °F - 55.4 °F 47% 30.14 in 10.0 mi North - - N/A   Unknown
3:35 PM 78.8 °F - 55.4 °F 44% 30.13 in 10.0 mi North - - N/A   Unknown
3:55 PM 78.8 °F - 55.4 °F 44% 30.13 in 10.0 mi North - - N/A   Unknown
4:15 PM 80.6 °F 80.5 °F 55.4 °F 42% 30.13 in 10.0 mi North - - N/A   Unknown
4:35 PM 80.6 °F 80.5 °F 55.4 °F 42% 30.12 in 10.0 mi North - - N/A   Unknown
4:55 PM 80.6 °F 80.8 °F 57.2 °F 45% 30.12 in 10.0 mi North - - N/A   Unknown
5:15 PM 80.6 °F 80.8 °F 57.2 °F 45% 30.12 in 10.0 mi North - - N/A   Unknown
5:35 PM 78.8 °F - 57.2 °F 47% 30.12 in 10.0 mi North - - N/A   Unknown
5:55 PM 78.8 °F - 55.4 °F 44% 30.12 in 10.0 mi North - - N/A   Unknown
6:15 PM 78.8 °F - 55.4 °F 44% 30.12 in 10.0 mi North - - N/A   Unknown
6:35 PM 78.8 °F - 55.4 °F 44% 30.12 in 10.0 mi North - - N/A   Unknown
6:55 PM 77.0 °F - 55.4 °F 47% 30.11 in 10.0 mi North - - N/A   Unknown
7:15 PM 75.2 °F - 55.4 °F 50% 30.12 in 10.0 mi North - - N/A   Unknown
7:35 PM 73.4 °F - 55.4 °F 53% 30.12 in 10.0 mi North - - N/A   Unknown
7:55 PM 71.6 °F - 53.6 °F 53% 30.12 in 10.0 mi North - - N/A   Unknown
8:15 PM 69.8 °F - 53.6 °F 56% 30.13 in 10.0 mi North - - N/A   Unknown
8:35 PM 68.0 °F - 51.8 °F 56% 30.13 in 10.0 mi North - - N/A   Unknown
8:55 PM 66.2 °F - 51.8 °F 60% 30.14 in 10.0 mi North - - N/A   Unknown
9:15 PM 66.2 °F - 50.0 °F 56% 30.15 in 10.0 mi North - - N/A   Unknown
9:35 PM 66.2 °F - 50.0 °F 56% 30.15 in 10.0 mi North - - N/A   Unknown
9:55 PM 66.2 °F - 50.0 °F 56% 30.15 in 10.0 mi North - - N/A   Unknown
10:15 PM 64.4 °F - 50.0 °F 59% 30.15 in 10.0 mi North - - N/A   Unknown
10:35 PM 62.6 °F - 50.0 °F 63% 30.16 in 10.0 mi North - - N/A   Unknown
10:55 PM 62.6 °F - 50.0 °F 63% 30.16 in 10.0 mi North - - N/A   Unknown
11:15 PM 62.6 °F - 50.0 °F 63% 30.16 in 10.0 mi North - - N/A   Unknown
11:35 PM 62.6 °F - 50.0 °F 63% 30.16 in 10.0 mi North - - N/A   Unknown
11:55 PM 59.0 °F - 50.0 °F 72% 30.16 in 10.0 mi North - - N/A   Unknown